Location: Observatoire
(46.1952°N, 5.3391°E)
Time: 08:21:22
(UTC+01:00)

Altair - Pass Details

Date: 21 February 2026
Orbit: 1502 x 1682 km, 47.2° (Epoch: 9 March)

Event Time Altitude Azimuth Distance (km) Brightness Sun altitude
Rises 10:58:15 0° 292° (WNW) 4,715 9.6 27.8°
Reaches altitude 10° 11:01:31 10° 285° (WNW) 3,752 9.2 28.1°
Maximum altitude 11:10:03 39° 221° (SW) 2,250 8.9 28.9°
Drops below altitude 10° 11:18:51 10° 158° (SSE) 3,868 11.3 29.6°
Sets 11:22:17 0° 151° (SSE) 4,874 11.3 29.8°
